[[{"header":{"parameterUnit":"m.s-1","parameterCategory":1,"la1":30.2991,"la2":30.254,"lo1":-89.0895,"lo2":-89.0444,"dy":0.0017,"dx":0.0017,"nx":28,"ny":28,"refTime":"2024-07-13T03:00:00:Z","depth":0,"parameterNumber":2,"parameterNumberName":"U-component_of_WINDS"},"data":[0,0,0,0,0,0,0,0,0,0,0,0,0,0,0,0,0,0,0,0,0,0,0,0,0,0,0,0,0,0,0,0,0,0,0,0,0,0,0,0,0,0,0,0,0,0,0,0,0,0,0,0,0,0,0,0,0,0,2.3597,2.3598,0,2.3644,2.3645,2.3645,2.3591,2.3589,2.3587,2.3585,2.3636,2.3639,2.3643,0,0,0,0,0,0,0,0,0,0,0,0,0,2.3463,2.3466,2.3597,2.3598,2.3598,2.3644,2.3645,2.3645,2.3591,2.3589,2.3586,2.3584,2.3635,2.3639,2.3643,0,0,0,0,0,0,0,0,0,0,0,0,0,2.3517,2.3467,2.3597,2.3577,2.3575,2.3644,2.3645,2.3646,2.3592,2.3589,2.3586,2.3583,2.3634,2.3639,2.3643,2.3735,0,0,2.3658,2.3661,0,0,0,0,0,0,0,0,2.3514,2.3522,2.3579,2.3578,2.3577,2.3608,2.3616,2.3676,2.3593,2.3586,2.3585,2.3581,2.363,2.3635,2.365,2.3737,2.374,2.3659,2.3662,2.3664,2.3665,0,0,0,0,0,0,0,2.351,2.352,2.3616,2.358,2.3579,2.3566,2.357,2.3627,2.3624,2.3586,2.3582,2.3588,2.3628,2.3646,2.3651,2.374,2.3659,2.3663,2.3666,2.3668,2.3905,2.3908,0,0,0,0,0,0,2.3509,2.3517,2.3614,2.3617,2.3537,2.3571,2.3576,2.3602,2.3624,2.3624,2.3591,2.3586,2.3639,2.3645,2.3653,2.3761,2.3664,2.3668,2.3671,2.3902,2.3906,2.3909,0,0,0,0,0,0,2.3506,2.3518,2.3612,2.3566,2.3577,2.3577,2.3606,2.3604,2.3621,2.3627,2.3627,2.3609,2.3637,2.3646,2.3715,2.3762,2.3671,2.3675,2.3898,2.3903,2.3907,2.3979,0,0,0,0,0,0,2.3502,2.3517,2.3551,2.3567,2.358,2.3673,2.3609,2.3607,2.3629,2.3623,2.3644,2.3645,2.3635,2.3708,2.372,2.3767,2.3679,2.3893,2.39,2.3906,2.3972,2.3986,2.3997,0,0,0,0,0,2.3498,2.357,2.3553,2.3566,2.3622,2.3676,2.3683,2.367,2.3634,2.3668,2.3672,2.3644,2.3755,2.3715,2.3728,2.3778,2.389,2.3898,2.3905,2.3967,2.3983,2.3997,0,0,0,0,0,0,2.3561,2.3572,2.3553,2.3633,2.3654,2.3667,2.371,2.3688,2.372,2.3713,2.3696,2.3701,2.3774,2.3783,2.3738,2.3868,2.3817,2.3827,2.3859,2.3875,2.3887,2.3883,2.3683,0,0,0,0,0,2.3584,2.3626,2.3634,2.3703,2.3715,2.3711,2.3733,2.3721,2.3742,2.3751,2.376,2.3783,2.3822,2.3849,2.3886,2.3973,2.3977,2.4014,2.4026,2.4037,2.4046,2.4092,2.4109,2.3934,2.3934,2.3934,0,0,2.3633,2.3644,2.3672,2.3716,2.3731,2.3775,2.3718,2.3768,2.38,2.3759,2.3824,2.3832,2.3856,2.3934,2.3969,2.3944,2.4095,2.4046,2.4054,2.4058,2.4102,2.4118,2.4133,2.3939,2.3938,2.3937,0,0,2.3744,2.3756,2.3815,2.3831,2.3853,2.385,2.3865,2.3881,2.3884,2.3948,2.3918,2.3957,2.4027,2.4045,2.4063,2.4181,2.4156,2.4193,2.4258,2.4304,2.4318,2.433,2.4371,2.4386,2.4202,2.4203,2.4203,0,2.3802,2.3866,2.3849,2.39,2.3921,2.3884,2.3944,2.396,2.3995,2.401,2.3981,2.4067,2.408,2.4162,2.4191,2.4207,2.4223,2.4191,2.4317,2.4329,2.434,2.4379,2.4395,2.4207,2.4207,2.4206,2.4206,0,2.3935,2.398,2.4026,2.4058,2.4084,2.4139,2.4132,2.416,2.4146,2.4146,2.4213,2.4228,2.4267,2.4285,2.4273,2.4366,2.4349,2.4319,2.4267,2.4361,2.4398,2.4413,2.4213,2.4212,2.421,2.4209,0,0,2.4087,2.4109,2.4126,2.414,2.4162,2.4197,2.4251,2.4288,2.4313,2.4338,2.4383,2.4442,2.4414,2.4435,2.4423,2.4464,2.4555,2.4428,2.4428,2.4451,2.4658,2.4681,2.4698,2.4539,2.4542,2.4544,2.4656,0,2.4198,2.429,2.4276,2.4366,2.4407,2.4373,2.442,2.4439,2.4441,2.4477,2.4479,2.4521,2.4481,2.4493,2.4532,2.4536,2.4597,2.4528,2.4581,2.4583,2.4576,2.4718,2.4742,2.4847,2.4671,2.4673,2.4675,0,2.4339,2.4367,2.446,2.4475,2.4492,2.4535,2.4567,2.4602,2.4624,2.4622,2.4645,2.4627,2.4681,2.4629,2.4705,2.4658,2.4679,2.4685,2.4689,2.4693,2.4634,2.4725,2.488,2.4895,2.4697,2.4696,2.4694,0,2.444,2.4502,2.4565,2.4578,2.4597,2.4628,2.4638,2.4656,2.4679,2.4708,2.4723,2.4759,2.4778,2.4807,2.4799,2.4762,2.4876,2.4823,2.4877,2.4877,2.4902,2.4901,2.5062,2.4917,2.4917,2.4916,2.4916,0,2.4564,2.4623,2.461,2.465,2.4714,2.4698,2.4762,2.4768,2.4784,2.4824,2.4798,2.4836,2.4823,2.4862,2.4856,2.4919,2.4928,2.4929,2.4927,2.4931,2.4931,2.4944,2.4937,2.492,2.492,2.4919,2.4918,0,2.4688,2.4682,2.4749,2.4761,2.4766,2.4813,2.4823,2.4861,2.486,2.4911,2.4922,2.4922,2.4965,2.496,2.5009,2.5005,2.5083,2.5073,2.5076,2.5073,2.5127,2.5122,2.5302,2.5325,2.5165,2.5167,2.5168,0,2.4767,2.4811,2.4828,2.4852,2.4863,2.4903,2.4926,2.4913,2.4938,2.4965,2.4999,2.504,2.5072,2.5143,2.5147,2.5185,2.5174,2.5235,2.518,2.5183,2.5175,2.5172,2.5176,2.5246,2.5248,2.5249,2.525,0,2.4909,2.4904,2.4938,2.4971,2.4999,2.5024,2.5047,2.5069,2.5058,2.5088,2.5131,2.5156,2.5205,2.5246,2.5281,2.5291,2.527,2.5268,2.5282,2.5286,2.5286,2.5287,2.5105,2.5263,2.5262,2.5261,2.526,2.526,2.5013,2.505,2.5067,2.5106,2.5121,2.5143,2.5178,2.5182,2.5217,2.5255,2.5246,2.5294,2.5315,2.5359,2.5374,2.5412,2.539,2.5411,2.5416,2.5422,2.5428,2.528,2.5419,2.5418,2.5418,2.5418,2.5418,0,2.5153,2.5162,2.5197,2.523,2.526,2.5236,2.526,2.5287,2.533,2.535,2.5382,2.5431,2.5471,2.5479,2.5516,2.5546,2.5537,2.5556,2.5554,2.5557,2.5445,2.5429,2.5563,2.5563,2.5563,2.5563,2.5563,2.5563,2.5229,2.529,2.5287,2.5356,2.5365,2.5412,2.5428,2.5448,2.5464,2.552,2.5552,2.5556,2.5572,2.561,2.5646,2.5647,2.5662,2.5686,2.5683,2.5579,2.5564,2.5551,2.5535,2.5689,2.5689,2.5791,2.5792,2.5792]},{"header":{"parameterUnit":"m.s-1","parameterCategory":1,"la1":30.2991,"la2":30.254,"lo1":-89.0895,"lo2":-89.0444,"dy":0.0017,"dx":0.0017,"nx":28,"ny":28,"refTime":"2024-07-13T03:00:00:Z","depth":0,"parameterNumber":3,"parameterNumberName":"V-component_of_WINDS"},"data":[0,0,0,0,0,0,0,0,0,0,0,0,0,0,0,0,0,0,0,0,0,0,0,0,0,0,0,0,0,0,0,0,0,0,0,0,0,0,0,0,0,0,0,0,0,0,0,0,0,0,0,0,0,0,0,0,0,0,3.3721,3.3723,0,3.39,3.3902,3.3904,3.393,3.3929,3.3927,3.3925,3.4101,3.4107,3.4113,0,0,0,0,0,0,0,0,0,0,0,0,0,3.3394,3.34,3.3721,3.3723,3.3726,3.39,3.3902,3.3905,3.393,3.3928,3.3926,3.3925,3.4099,3.4106,3.4113,0,0,0,0,0,0,0,0,0,0,0,0,0,3.3551,3.3402,3.3721,3.376,3.3765,3.39,3.3903,3.3905,3.3931,3.3928,3.3926,3.3924,3.4096,3.4105,3.4114,3.422,0,0,3.4143,3.4147,0,0,0,0,0,0,0,0,3.3542,3.3563,3.3752,3.3757,3.3763,3.3891,3.3852,3.4011,3.3931,3.3868,3.3925,3.3922,3.4032,3.4047,3.4085,3.4229,3.4236,3.4144,3.4149,3.4153,3.4156,0,0,0,0,0,0,0,3.3531,3.3555,3.3792,3.3754,3.3762,3.3766,3.3785,3.3882,3.3961,3.3873,3.3875,3.3897,3.4035,3.4076,3.409,3.4239,3.4143,3.4152,3.4157,3.4161,3.4477,3.448,0,0,0,0,0,0,3.3514,3.3546,3.3786,3.3797,3.3645,3.3774,3.3796,3.3852,3.396,3.3974,3.3898,3.3897,3.4062,3.4079,3.4096,3.4227,3.4153,3.4162,3.4167,3.4474,3.4478,3.4481,0,0,0,0,0,0,3.3507,3.3535,3.3779,3.3672,3.3704,3.3782,3.3845,3.3857,3.3898,3.398,3.3993,3.3927,3.406,3.4083,3.419,3.4233,3.4166,3.4174,3.4471,3.4475,3.4479,3.449,0,0,0,0,0,0,3.3498,3.3533,3.3575,3.3673,3.3709,3.3872,3.3848,3.3862,3.3915,3.3915,3.401,3.4023,3.406,3.4176,3.4199,3.4245,3.4182,3.4467,3.4473,3.4478,3.4486,3.4494,3.4501,0,0,0,0,0,3.3486,3.3569,3.3578,3.3606,3.3765,3.3875,3.3895,3.3939,3.3919,3.3961,3.4013,3.402,3.4225,3.4186,3.4213,3.4262,3.4465,3.4471,3.4477,3.4482,3.4492,3.45,0,0,0,0,0,0,3.3472,3.3583,3.3593,3.3711,3.3784,3.3879,3.3934,3.3947,3.4025,3.4021,3.4069,3.409,3.4195,3.4239,3.4194,3.437,3.4343,3.4355,3.4337,3.4347,3.4355,3.4341,3.4189,0,0,0,0,0,3.3483,3.3565,3.3657,3.3752,3.3788,3.3855,3.3904,3.3932,3.4007,3.4037,3.4097,3.4168,3.4249,3.43,3.4379,3.4492,3.4512,3.4539,3.4546,3.4552,3.4562,3.4624,3.4637,3.4502,3.4502,3.4502,0,0,3.3506,3.3577,3.3625,3.3751,3.3811,3.3892,3.388,3.3967,3.4028,3.405,3.4155,3.4201,3.4284,3.4394,3.4446,3.4434,3.4604,3.456,3.4564,3.4571,3.4632,3.4645,3.4656,3.4506,3.4505,3.4505,0,0,3.359,3.3652,3.3739,3.3799,3.389,3.3934,3.3954,3.4048,3.4081,3.4188,3.4206,3.4277,3.4415,3.4473,3.452,3.4627,3.4635,3.4651,3.4689,3.475,3.476,3.477,3.4807,3.482,3.466,3.466,3.466,0,3.3606,3.3733,3.378,3.3868,3.3922,3.3949,3.4035,3.4091,3.4201,3.4237,3.4223,3.4397,3.4454,3.4579,3.4605,3.4643,3.4666,3.464,3.4755,3.4765,3.4775,3.4811,3.4825,3.4661,3.4661,3.4661,3.4661,0,3.3748,3.3835,3.3894,3.4003,3.4064,3.415,3.4209,3.4265,3.4287,3.4331,3.4439,3.4509,3.4602,3.4634,3.4655,3.4761,3.4752,3.4746,3.4719,3.4789,3.4823,3.4837,3.4663,3.4663,3.4662,3.4662,0,0,3.3827,3.3963,3.3984,3.4034,3.4136,3.4203,3.429,3.4384,3.443,3.4505,3.4578,3.4695,3.4691,3.4745,3.4773,3.4826,3.4905,3.4814,3.4817,3.4828,3.5025,3.5029,3.5044,3.4912,3.4915,3.4917,3.5018,0,3.3922,3.4081,3.4127,3.4259,3.434,3.4367,3.4442,3.4512,3.4556,3.4628,3.4676,3.4758,3.4746,3.4779,3.4833,3.4884,3.4945,3.4878,3.4978,3.4981,3.4956,3.5062,3.5066,3.5158,3.5032,3.5035,3.5036,0,3.4054,3.4135,3.4277,3.437,3.4405,3.4472,3.4562,3.4633,3.4711,3.4739,3.48,3.4824,3.4913,3.4883,3.5005,3.4958,3.5002,3.5033,3.5038,3.5048,3.5012,3.5075,3.5189,3.5202,3.5058,3.5056,3.5055,0,3.4097,3.4241,3.4345,3.4386,3.4497,3.4544,3.4592,3.4669,3.4723,3.48,3.4835,3.4921,3.4968,3.5032,3.5078,3.5051,3.5196,3.5169,3.522,3.5219,3.5249,3.5246,3.5371,3.5278,3.5278,3.5278,3.5277,0,3.4198,3.4283,3.4365,3.4429,3.4525,3.4576,3.4668,3.4717,3.4786,3.4857,3.4884,3.495,3.5007,3.508,3.5116,3.5212,3.5232,3.5256,3.5264,3.5254,3.525,3.5282,3.5277,3.5281,3.5281,3.528,3.5279,0,3.4261,3.432,3.4435,3.4531,3.4558,3.4624,3.4705,3.4767,3.4812,3.4903,3.4926,3.4997,3.5084,3.5137,3.5246,3.527,3.5376,3.5382,3.535,3.5354,3.5402,3.5396,3.5551,3.5573,3.5466,3.5467,3.5467,0,3.4322,3.4389,3.4493,3.4545,3.4594,3.4676,3.4732,3.4784,3.4841,3.4936,3.4986,3.5076,3.5151,3.5289,3.5348,3.5432,3.5439,3.5488,3.5452,3.5439,3.5439,3.5435,3.5441,3.5493,3.5494,3.5495,3.5496,0,3.4422,3.4449,3.4529,3.4621,3.4687,3.4761,3.4834,3.4873,3.4938,3.4999,3.5091,3.5149,3.5263,3.5351,3.5441,3.5487,3.5501,3.5507,3.5523,3.5512,3.5491,3.5503,3.5366,3.5503,3.5502,3.5501,3.5501,3.5501,3.4486,3.4547,3.463,3.4719,3.478,3.4848,3.4911,3.4966,3.5044,3.5143,3.5168,3.5264,3.534,3.5462,3.5511,3.5585,3.5577,3.56,3.5606,3.5611,3.5612,3.548,3.5601,3.5601,3.5601,3.5601,3.5601,0,3.4588,3.4643,3.4725,3.4828,3.4897,3.4909,3.499,3.5046,3.5132,3.5203,3.5277,3.5382,3.5468,3.5535,3.5622,3.5669,3.5678,3.569,3.5686,3.5697,3.5614,3.5592,3.5681,3.5681,3.5681,3.5681,3.5681,3.5681,3.4649,3.4752,3.4788,3.4921,3.4976,3.5072,3.5118,3.518,3.5238,3.5355,3.5428,3.5472,3.5541,3.5634,3.5713,3.573,3.5761,3.5772,3.579,3.5711,3.5702,3.5694,3.5673,3.5778,3.5778,3.5866,3.5867,3.5867]}]]